Showing default

MAKERSAT 0, 43016

Orbit data source: Space-Track

MAKERSAT 0, 43016 is a payload satellite owned by NW Nazarene (US) in SSO that was launched on Sat, 18 Nov 2017 UTC via a DELTA 7920-10C launch vehicle from the Air Force Western Test Range (AFWTR). Payload-class satellites include a variety of spacecraft equipped with specific instruments for various scientific and technological missions. These include communications satellites like Starlink; space stations such as the ISS; scientific satellites like the Hubble; Earth observation satellites from companies like Planet Labs, Umbra, and HawkEye 360; GPS; miniature CubeSats for education and research; and military/defense satellites.

Loading next visibility...
Identifier
43016, 2017-073D
Orbit
SSO
Country
Flag of USUS
Related business
Manufacturer
NW Nazarene
Mission
Operational Amateur Technology
Bus & Motor
CUBESAT 1U, Unknown motor
Mass
1 kg wet, 1 kg dry
Launch date (UTC)
2017-11-18 (9 years ago)
Launch vehicle
DELTA 7920-10C
Launch site
Air Force Western Test Range (AFWTR)
Object type
Payload
Rocket body
Debris
Shape & HBR
Box, 0.087 m
Radar Cross Section
0.015 m², Medium (>0.1 m² and < 1m²)

Expand to show TLE details & history
Last TLE update: 13 hours ago

TLE from 13 hours ago
0 MAKERSAT 0
1 43016U 17073D   26267.14434167  .00018787  00000-0  46359-3 0  9996
2 43016  97.4450 150.5902 0096528 280.2379  78.7990 15.35797955481636
Epoch: 2026-09-24T03:27Z
TLE epoch observation values (Epoch: 2026-09-24T03:27:51.120Z)
Latitude
-0.00007°
Longitude
95.64188°
Altitude
449.455 km
Speed
7.649 km/s
True Right ascension
10h 02m 21s
True Declination
0° 00' 00"
Sunlit
Object was in daylight at epoch
Visualization orbit readout
Latitude
Unknown
Longitude
Unknown
Altitude
Unknown
Speed
Unknown
Apparent Right ascension
Unknown
Apparent Declination
Unknown
Sunlit
N/A
Visualization observer readout
Local Sidereal Time
10:05:54
Azimuth
Unknown
Elevation
Unknown
Doppler factor
Unknown
Orbital elements
Apogee altitude
521.461 km
Perigee altitude
389.534 km
Semi-major axis
6,833.634 km
Eccentricity
0.00965
Inclination
97.445°
RAAN
150.5902°
Arg. of periapsis
280.2379°
True anomaly
79.88654°
Mean anomaly
78.799°
Eccentric anomaly
79.34252°
Mean motion
3.84207 °/min
Orbital period
93.7 mins
BSTAR
0.00046359
Loading maneuver chart data...
Computing Atmospheric mass density...
Loading historical data...
Loading historical data...
Loading historical data...
Loading historical data...
Loading historical data...
Loading historical data...
Loading historical data...

Documentation

Showing up to 5 results
|